When you browse on this site, cookies collect data to enhance your experience and personalize the content and advertising you see.
Visit our Privacy Policy to learn more. By continuing to use the site, you agree to this use of cookies and data.
  • In Austria
  • List of Countries
  • For 7 days
  • Water Temperature
  • Weather Map
  • News
  • Weather Widgets
  • user-avatar
    Login

    Hourly Weather Comayagua

    Today, 30 May, Saturday

    Time Temperature Precipitation Wind Pressure Humidity
    00:00 +21°C° 0.1 mm 0 mps 708 mmHg 93%
    01:00 +21°C° 1.1 mm 0 mps 708 mmHg 95%
    02:00 +21°C° 1.1 mm 0 mps 707 mmHg 96%
    03:00 +21°C° 1.1 mm 0 mps 707 mmHg 97%
    04:00 +21°C° 0.2 mm 0 mps 707 mmHg 97%
    05:00 +21°C° 0.2 mm 0 mps 707 mmHg 96%
    06:00 +21°C° 0.2 mm 0 mps 707 mmHg 96%
    07:00 +22°C° 0.1 mm 0 mps 708 mmHg 94%
    08:00 +24°C° 0.1 mm 1 mps 708 mmHg 92%
    09:00 +25°C° 0.1 mm 1 mps 708 mmHg 90%
    10:00 +25°C° 1.4 mm 1 mps 708 mmHg 91%
    11:00 +25°C° 1.4 mm 1 mps 708 mmHg 93%
    12:00 +25°C° 1.4 mm 1 mps 708 mmHg 94%
    13:00 +25°C° 0.9 mm 1 mps 707 mmHg 94%
    14:00 +25°C° 0.9 mm 1 mps 707 mmHg 94%
    15:00 +23°C° 0.9 mm 0 mps 706 mmHg 93%
    16:00 +22°C° 0.4 mm 0 mps 706 mmHg 94%
    17:00 +22°C° 0.4 mm 0 mps 706 mmHg 95%
    18:00 +24°C° 0.4 mm 1 mps 706 mmHg 95%
    19:00 +24°C° 0.3 mm 1 mps 707 mmHg 95%
    20:00 +24°C° 0.3 mm 1 mps 708 mmHg 96%
    21:00 +24°C° 0.3 mm 1 mps 708 mmHg 96%
    22:00 +23°C° 1.2 mm 1 mps 708 mmHg 96%
    23:00 +23°C° 1.2 mm 1 mps 708 mmHg 97%

    Tomorrow, 31 May, Sunday

    Time Temperature Precipitation Wind Pressure Humidity
    00:00 +23°C° 1.2 mm 1 mps 708 mmHg 98%
    01:00 +23°C° 0.8 mm 1 mps 707 mmHg 97%
    02:00 +23°C° 0.8 mm 1 mps 707 mmHg 97%
    03:00 +23°C° 0.8 mm 1 mps 706 mmHg 97%
    04:00 +23°C° 0.8 mm 1 mps 707 mmHg 97%
    05:00 +23°C° 0.8 mm 1 mps 707 mmHg 97%
    06:00 +23°C° 0.8 mm 1 mps 707 mmHg 98%
    07:00 +23°C° 1.6 mm 1 mps 708 mmHg 97%
    08:00 +24°C° 1.6 mm 1 mps 708 mmHg 96%
    09:00 +24°C° 1.6 mm 1 mps 709 mmHg 95%
    10:00 +25°C° 0.6 mm 1 mps 708 mmHg 94%
    11:00 +25°C° 0.6 mm 1 mps 708 mmHg 93%
    12:00 +25°C° 0.6 mm 1 mps 708 mmHg 92%
    13:00 +25°C° 1.1 mm 1 mps 707 mmHg 93%
    14:00 +25°C° 1.1 mm 1 mps 707 mmHg 94%
    15:00 +25°C° 1.1 mm 1 mps 707 mmHg 94%
    16:00 +25°C° 0.4 mm 1 mps 707 mmHg 95%
    17:00 +24°C° 0.4 mm 1 mps 707 mmHg 95%
    18:00 +24°C° 0.4 mm 1 mps 707 mmHg 95%
    19:00 +24°C° 1 mm 1 mps 707 mmHg 96%
    20:00 +24°C° 1 mm 1 mps 708 mmHg 97%
    21:00 +24°C° 1 mm 1 mps 708 mmHg 98%
    22:00 +24°C° 0.2 mm 1 mps 708 mmHg 97%
    23:00 +24°C° 0.2 mm 1 mps 708 mmHg 97%

    Day after tomorrow, 1 June, Monday

    Time Temperature Precipitation Wind Pressure Humidity
    00:00 +23°C° 0.2 mm 1 mps 708 mmHg 97%
    01:00 +23°C° 0.1 mm 1 mps 708 mmHg 97%
    02:00 +23°C° 0.1 mm 1 mps 707 mmHg 97%
    03:00 +24°C° 0.1 mm 1 mps 707 mmHg 97%
    04:00 +24°C° 0.3 mm 1 mps 707 mmHg 97%
    05:00 +24°C° 0.3 mm 1 mps 707 mmHg 97%
    06:00 +24°C° 0.3 mm 1 mps 707 mmHg 97%
    07:00 +24°C° 0.7 mm 1 mps 708 mmHg 97%
    08:00 +24°C° 0.7 mm 1 mps 709 mmHg 97%
    09:00 +24°C° 0.7 mm 1 mps 709 mmHg 96%
    10:00 +24°C° 0.9 mm 1 mps 709 mmHg 96%
    11:00 +25°C° 0.9 mm 1 mps 709 mmHg 95%
    12:00 +25°C° 0.9 mm 1 mps 708 mmHg 94%
    13:00 +25°C° 0.4 mm 1 mps 708 mmHg 94%
    14:00 +25°C° 0.4 mm 1 mps 708 mmHg 93%
    15:00 +25°C° 0.4 mm 1 mps 708 mmHg 93%
    16:00 +25°C° 0.5 mm 1 mps 708 mmHg 94%
    17:00 +24°C° 0.5 mm 1 mps 708 mmHg 95%
    18:00 +24°C° 0.5 mm 1 mps 708 mmHg 96%
    19:00 +24°C° 0 mm 1 mps 708 mmHg 96%
    20:00 +24°C° 0 mm 1 mps 709 mmHg 95%
    21:00 +24°C° 0 mm 1 mps 709 mmHg 95%
    22:00 +24°C° 0 mm 1 mps 709 mmHg 95%
    23:00 +23°C° 0 mm 1 mps 709 mmHg 95%

    2 June, Tuesday

    Time Temperature Precipitation Wind Pressure Humidity
    00:00 +23°C° 0 mm 1 mps 709 mmHg 96%
    01:00 +23°C° 0.2 mm 1 mps 708 mmHg 96%
    02:00 +23°C° 0.2 mm 1 mps 708 mmHg 96%
    03:00 +23°C° 0.2 mm 1 mps 708 mmHg 96%
    04:00 +23°C° 0 mm 1 mps 708 mmHg 96%
    05:00 +21°C° 0 mm 0 mps 708 mmHg 95%
    06:00 +21°C° 0 mm 0 mps 708 mmHg 95%
    07:00 +22°C° 0 mm 0 mps 708 mmHg 92%
    08:00 +23°C° 0 mm 0 mps 709 mmHg 89%
    09:00 +24°C° 0 mm 0 mps 709 mmHg 86%
    10:00 +26°C° 0 mm 1 mps 709 mmHg 86%
    11:00 +26°C° 0 mm 1 mps 709 mmHg 86%
    12:00 +26°C° 0 mm 1 mps 708 mmHg 86%
    13:00 +26°C° 0 mm 1 mps 708 mmHg 84%
    14:00 +27°C° 0 mm 1 mps 707 mmHg 82%
    15:00 +27°C° 0 mm 1 mps 707 mmHg 80%
    16:00 +27°C° 0.3 mm 1 mps 707 mmHg 83%
    17:00 +26°C° 0.3 mm 1 mps 707 mmHg 86%
    18:00 +23°C° 0.3 mm 0 mps 707 mmHg 89%
    19:00 +25°C° 0.6 mm 1 mps 708 mmHg 90%
    20:00 +25°C° 0.6 mm 1 mps 708 mmHg 92%
    21:00 +24°C° 0.6 mm 1 mps 709 mmHg 94%
    22:00 +24°C° 0.3 mm 1 mps 709 mmHg 94%
    23:00 +24°C° 0.3 mm 1 mps 708 mmHg 94%

    3 June, Wednesday

    Time Temperature Precipitation Wind Pressure Humidity
    00:00 +22°C° 0.3 mm 0 mps 708 mmHg 95%
    01:00 +22°C° 0 mm 0 mps 708 mmHg 94%
    02:00 +22°C° 0 mm 0 mps 707 mmHg 94%
    03:00 +22°C° 0 mm 0 mps 707 mmHg 94%
    04:00 +22°C° 0.1 mm 0 mps 707 mmHg 94%
    05:00 +22°C° 0.1 mm 0 mps 707 mmHg 94%
    06:00 +23°C° 0.1 mm 1 mps 707 mmHg 94%
    07:00 +25°C° 0 mm 1 mps 708 mmHg 88%
    08:00 +26°C° 0 mm 1 mps 708 mmHg 82%
    09:00 +28°C° 0 mm 1 mps 709 mmHg 76%
    10:00 +29°C° 0.5 mm 1 mps 708 mmHg 72%
    11:00 +30°C° 0.5 mm 1 mps 708 mmHg 69%
    12:00 +32°C° 0.5 mm 1 mps 708 mmHg 65%
    13:00 +31°C° 2.3 mm 1 mps 707 mmHg 71%
    14:00 +30°C° 2.3 mm 1 mps 707 mmHg 77%
    15:00 +28°C° 2.3 mm 1 mps 706 mmHg 83%
    16:00 +27°C° 1.7 mm 1 mps 706 mmHg 87%
    17:00 +26°C° 1.7 mm 1 mps 706 mmHg 91%
    18:00 +25°C° 1.7 mm 1 mps 706 mmHg 95%
    19:00 +25°C° 1.2 mm 1 mps 707 mmHg 95%
    20:00 +25°C° 1.2 mm 1 mps 707 mmHg 96%
    21:00 +24°C° 1.2 mm 1 mps 708 mmHg 96%
    22:00 +24°C° 0.1 mm 1 mps 708 mmHg 96%
    23:00 +24°C° 0.1 mm 1 mps 707 mmHg 96%

    4 June, Thursday

    Time Temperature Precipitation Wind Pressure Humidity
    00:00 +22°C° 0.1 mm 0 mps 707 mmHg 96%
    01:00 +22°C° 0 mm 0 mps 707 mmHg 95%
    02:00 +22°C° 0 mm 0 mps 707 mmHg 95%
    03:00 +21°C° 0 mm 0 mps 706 mmHg 95%
    04:00 +21°C° 0 mm 0 mps 706 mmHg 95%
    05:00 +21°C° 0 mm 0 mps 706 mmHg 95%
    06:00 +23°C° 0 mm 1 mps 707 mmHg 94%
    07:00 +25°C° 0 mm 1 mps 707 mmHg 86%
    08:00 +27°C° 0 mm 1 mps 708 mmHg 78%
    09:00 +28°C° 0 mm 1 mps 709 mmHg 69%
    10:00 +30°C° 0 mm 1 mps 708 mmHg 63%
    11:00 +31°C° 0 mm 1 mps 708 mmHg 57%
    12:00 +32°C° 0 mm 1 mps 708 mmHg 50%
    13:00 +32°C° 0.1 mm 1 mps 707 mmHg 49%
    14:00 +32°C° 0.1 mm 1 mps 706 mmHg 48%
    15:00 +32°C° 0.1 mm 1 mps 706 mmHg 47%
    16:00 +30°C° 0.1 mm 1 mps 706 mmHg 55%
    17:00 +29°C° 0.1 mm 1 mps 706 mmHg 62%
    18:00 +27°C° 0.1 mm 1 mps 706 mmHg 70%
    19:00 +26°C° 0 mm 1 mps 706 mmHg 75%
    20:00 +25°C° 0 mm 1 mps 707 mmHg 80%
    21:00 +24°C° 0 mm 1 mps 707 mmHg 85%
    22:00 +24°C° 0 mm 1 mps 707 mmHg 87%
    23:00 +23°C° 0 mm 1 mps 707 mmHg 89%
    Show more